Time,TemperatureF,DewpointF,PressureIn,WindDirection,WindDirectionDegrees,WindSpeedMPH,WindSpeedGustMPH,Humidity,HourlyPrecipIn,Conditions,Clouds,dailyrainin,SoftwareType,DateUTC
2013-10-19 00:01:00,44.7,27.2,29.44,WNW,293,0.0,1.6,50,0.00,,,0.00,WSDL version 342,2013-10-19 04:01:00,
2013-10-19 00:02:00,44.7,27.2,29.44,WNW,293,0.0,1.6,50,-99.99,,,-99.99,WSDL version 342,2013-10-19 04:02:00,
2013-10-19 00:03:00,44.7,27.2,29.44,WNW,293,0.0,1.6,50,0.00,,,0.00,WSDL version 342,2013-10-19 04:03:00,
2013-10-19 00:04:00,44.6,27.2,29.44,WNW,293,0.0,1.1,50,0.00,,,0.00,WSDL version 342,2013-10-19 04:04:00,
2013-10-19 00:07:00,44.6,27.1,29.44,NW,304,0.0,0.0,50,0.00,,,0.00,WSDL version 342,2013-10-19 04:07:00,
2013-10-19 00:13:00,44.3,27.2,29.44,WNW,293,0.0,0.0,51,0.00,,,0.00,WSDL version 342,2013-10-19 04:13:00,
2013-10-19 00:18:00,44.2,27.2,29.41,WNW,293,0.0,0.0,51,0.00,,,0.00,WSDL version 342,2013-10-19 04:18:00,
2013-10-19 00:23:00,44.1,27.1,29.41,WNW,293,0.0,0.0,51,0.00,,,0.00,WSDL version 342,2013-10-19 04:23:00,
2013-10-19 00:28:00,43.9,27.3,29.41,WNW,293,0.0,0.0,52,0.00,,,0.00,WSDL version 342,2013-10-19 04:28:00,
2013-10-19 00:30:00,43.9,27.4,29.41,WNW,293,0.0,0.0,52,0.00,,,0.00,WSDL version 342,2013-10-19 04:30:00,
2013-10-19 00:37:00,43.7,27.2,29.44,West,270,0.0,0.0,52,-99.99,,,-99.99,WSDL version 342,2013-10-19 04:37:00,
2013-10-19 00:42:00,43.6,27.1,29.44,WNW,293,0.0,0.0,52,0.00,,,0.00,WSDL version 342,2013-10-19 04:42:00,
2013-10-19 00:47:00,43.5,27.1,29.44,WNW,296,0.9,1.6,52,0.00,,,0.00,WSDL version 342,2013-10-19 04:47:00,
2013-10-19 00:52:00,43.3,27.4,29.44,WNW,293,0.4,1.6,53,0.00,,,0.00,WSDL version 342,2013-10-19 04:52:00,
2013-10-19 00:57:00,43.3,27.3,29.44,NW,308,0.3,1.3,53,0.00,,,0.00,WSDL version 342,2013-10-19 04:57:00,
2013-10-19 01:02:00,43.2,27.5,29.44,WNW,293,0.0,1.3,54,0.00,,,0.00,WSDL version 342,2013-10-19 05:02:00,
2013-10-19 01:07:00,43.2,27.7,29.44,WNW,293,0.0,1.3,54,0.00,,,0.00,WSDL version 342,2013-10-19 05:07:00,
2013-10-19 01:12:00,43.0,27.9,29.44,WNW,293,0.0,1.3,55,0.00,,,0.00,WSDL version 342,2013-10-19 05:12:00,
2013-10-19 01:17:00,43.0,27.9,29.44,WNW,293,0.0,1.3,55,0.00,,,0.00,WSDL version 342,2013-10-19 05:17:00,
2013-10-19 01:22:00,43.0,27.9,29.44,WNW,293,0.0,0.0,55,0.00,,,0.00,WSDL version 342,2013-10-19 05:22:00,
2013-10-19 01:27:00,43.0,28.1,29.44,WNW,293,0.0,0.0,56,0.00,,,0.00,WSDL version 342,2013-10-19 05:27:00,
2013-10-19 01:33:00,42.8,28.2,29.44,WNW,293,1.5,2.0,56,0.00,,,0.00,WSDL version 342,2013-10-19 05:33:00,
2013-10-19 01:38:00,43.0,28.4,29.44,WNW,293,0.6,2.0,56,0.00,,,0.00,WSDL version 342,2013-10-19 05:38:00,
2013-10-19 01:43:00,42.8,28.6,29.44,WNW,293,1.1,1.6,57,0.00,,,0.00,WSDL version 342,2013-10-19 05:43:00,
2013-10-19 01:49:00,42.8,28.6,29.44,WNW,293,1.1,1.6,57,-99.99,,,-99.99,WSDL version 342,2013-10-19 05:49:00,
2013-10-19 01:54:00,42.6,28.9,29.44,NW,304,0.1,1.6,58,0.00,,,0.00,WSDL version 342,2013-10-19 05:54:00,
2013-10-19 01:59:00,42.6,29.0,29.44,WNW,293,0.0,1.3,59,0.00,,,0.00,WSDL version 342,2013-10-19 05:59:00,
2013-10-19 02:04:00,42.4,29.0,29.44,WNW,293,0.0,0.0,59,0.00,,,0.00,WSDL version 342,2013-10-19 06:04:00,
2013-10-19 02:09:00,42.4,29.1,29.44,WNW,293,1.3,2.0,59,0.00,,,0.00,WSDL version 342,2013-10-19 06:09:00,
2013-10-19 02:14:00,42.4,29.1,29.44,WNW,293,0.1,2.0,59,0.00,,,0.00,WSDL version 342,2013-10-19 06:14:00,
2013-10-19 02:19:00,42.3,29.0,29.41,WNW,293,0.8,1.6,59,-99.99,,,-99.99,WSDL version 342,2013-10-19 06:19:00,
2013-10-19 02:24:00,42.1,28.8,29.41,WNW,293,0.0,1.6,59,0.00,,,0.00,WSDL version 342,2013-10-19 06:24:00,
2013-10-19 02:29:00,42.1,29.2,29.41,WNW,302,1.0,1.6,60,0.00,,,0.00,WSDL version 342,2013-10-19 06:29:00,
2013-10-19 02:35:00,41.9,29.0,29.44,WNW,293,0.6,1.3,60,0.00,,,0.00,WSDL version 342,2013-10-19 06:35:00,
2013-10-19 02:40:00,41.8,29.0,29.44,WNW,293,0.0,1.3,61,-99.99,,,-99.99,WSDL version 342,2013-10-19 06:40:00,
2013-10-19 02:46:00,41.6,29.2,29.44,WNW,293,0.0,0.0,61,0.00,,,0.00,WSDL version 342,2013-10-19 06:46:00,
2013-10-19 02:51:00,41.5,29.3,29.44,WNW,293,0.0,0.0,62,0.00,,,0.00,WSDL version 342,2013-10-19 06:51:00,
2013-10-19 02:56:00,41.5,29.6,29.44,WNW,293,0.0,0.0,63,0.00,,,0.00,WSDL version 342,2013-10-19 06:56:00,
2013-10-19 03:01:00,41.5,29.9,29.44,WNW,293,0.0,0.0,63,0.00,,,0.00,WSDL version 342,2013-10-19 07:01:00,
2013-10-19 03:07:00,41.5,30.0,29.44,WNW,293,0.0,0.0,64,0.00,,,0.00,WSDL version 342,2013-10-19 07:07:00,
2013-10-19 03:12:00,41.5,30.3,29.44,WNW,289,0.0,0.0,64,0.00,,,0.00,WSDL version 342,2013-10-19 07:12:00,
2013-10-19 03:17:00,41.4,30.3,29.41,WNW,293,0.0,0.0,65,-99.99,,,-99.99,WSDL version 342,2013-10-19 07:17:00,
2013-10-19 03:23:00,41.4,30.5,29.41,WNW,293,0.0,0.0,65,0.00,,,0.00,WSDL version 342,2013-10-19 07:23:00,
2013-10-19 03:28:00,41.4,30.9,29.41,WNW,293,0.0,0.0,66,0.00,,,0.00,WSDL version 342,2013-10-19 07:28:00,
2013-10-19 03:33:00,41.4,30.9,29.41,WNW,293,0.0,0.0,66,0.00,,,0.00,WSDL version 342,2013-10-19 07:33:00,
2013-10-19 03:38:00,41.4,31.2,29.41,WNW,293,0.0,0.0,67,0.00,,,0.00,WSDL version 342,2013-10-19 07:38:00,
2013-10-19 03:43:00,41.4,31.5,29.41,WNW,293,0.0,0.0,68,0.00,,,0.00,WSDL version 342,2013-10-19 07:43:00,
2013-10-19 03:48:00,41.4,31.6,29.44,WNW,293,0.0,0.0,68,0.00,,,0.00,WSDL version 342,2013-10-19 07:48:00,
2013-10-19 03:53:00,41.3,31.6,29.44,WNW,293,0.0,0.0,68,0.00,,,0.00,WSDL version 342,2013-10-19 07:53:00,
2013-10-19 03:58:00,41.2,31.7,29.44,WNW,293,0.0,0.0,69,0.00,,,0.00,WSDL version 342,2013-10-19 07:58:00,
2013-10-19 04:03:00,41.2,31.8,29.44,WNW,293,0.0,0.0,69,0.00,,,0.00,WSDL version 342,2013-10-19 08:03:00,
2013-10-19 04:08:00,41.4,32.0,29.44,WNW,293,0.0,0.0,69,0.00,,,0.00,WSDL version 342,2013-10-19 08:08:00,
2013-10-19 04:13:00,41.4,32.3,29.44,WNW,293,0.0,0.0,70,0.00,,,0.00,WSDL version 342,2013-10-19 08:13:00,
2013-10-19 04:18:00,41.4,32.3,29.44,WNW,293,0.0,0.0,70,0.00,,,0.00,WSDL version 342,2013-10-19 08:18:00,
2013-10-19 04:23:00,41.2,32.2,29.44,West,273,0.0,0.0,70,-99.99,,,-99.99,WSDL version 342,2013-10-19 08:23:00,
2013-10-19 04:28:00,41.2,32.2,29.44,WNW,293,0.0,0.0,70,0.00,,,0.00,WSDL version 342,2013-10-19 08:28:00,
2013-10-19 04:33:00,41.2,32.5,29.41,WNW,293,0.0,0.0,71,0.00,,,0.00,WSDL version 342,2013-10-19 08:33:00,
2013-10-19 04:38:00,41.2,32.5,29.41,WNW,293,0.0,0.0,71,0.00,,,0.00,WSDL version 342,2013-10-19 08:38:00,
2013-10-19 04:43:00,41.2,32.6,29.41,WNW,301,0.0,0.0,72,0.00,,,0.00,WSDL version 342,2013-10-19 08:43:00,
2013-10-19 04:48:00,41.2,32.9,29.44,WNW,296,0.0,0.0,72,0.00,,,0.00,WSDL version 342,2013-10-19 08:48:00,
2013-10-19 04:53:00,41.1,32.8,29.44,WNW,293,0.0,0.0,72,0.00,,,0.00,WSDL version 342,2013-10-19 08:53:00,
2013-10-19 04:58:00,41.0,32.7,29.44,WNW,293,0.0,0.0,72,0.00,,,0.00,WSDL version 342,2013-10-19 08:58:00,
2013-10-19 05:03:00,40.8,32.6,29.44,WNW,293,0.0,0.0,73,0.00,,,0.00,WSDL version 342,2013-10-19 09:03:00,
2013-10-19 05:08:00,40.8,32.8,29.44,WNW,293,0.0,0.0,73,0.00,,,0.00,WSDL version 342,2013-10-19 09:08:00,
2013-10-19 05:13:00,40.8,32.8,29.44,WNW,293,0.0,0.0,73,0.00,,,0.00,WSDL version 342,2013-10-19 09:13:00,
2013-10-19 05:18:00,40.8,32.8,29.44,WNW,293,0.0,0.0,73,0.00,,,0.00,WSDL version 342,2013-10-19 09:18:00,
2013-10-19 05:23:00,40.7,32.8,29.44,WNW,293,0.0,0.0,74,0.00,,,0.00,WSDL version 342,2013-10-19 09:23:00,
2013-10-19 05:28:00,40.8,33.2,29.44,WNW,293,0.0,0.0,74,-99.99,,,-99.99,WSDL version 342,2013-10-19 09:28:00,
2013-10-19 05:35:00,40.9,33.3,29.47,WNW,293,0.0,0.0,74,0.00,,,0.00,WSDL version 342,2013-10-19 09:35:00,
2013-10-19 05:40:00,41.0,33.4,29.47,WNW,293,0.0,0.0,74,0.00,,,0.00,WSDL version 342,2013-10-19 09:40:00,
2013-10-19 05:45:00,41.0,33.6,29.47,WNW,293,0.0,0.0,75,0.00,,,0.00,WSDL version 342,2013-10-19 09:45:00,
2013-10-19 05:50:00,41.0,33.7,29.44,WNW,293,0.0,0.0,75,0.00,,,0.00,WSDL version 342,2013-10-19 09:50:00,
2013-10-19 05:55:00,41.0,33.7,29.44,WNW,293,0.0,0.0,75,0.00,,,0.00,WSDL version 342,2013-10-19 09:55:00,
2013-10-19 06:00:00,41.0,33.7,29.44,WNW,293,0.0,0.0,75,0.00,,,0.00,WSDL version 342,2013-10-19 10:00:00,
2013-10-19 06:06:00,41.0,33.7,29.44,WNW,293,0.0,0.0,75,0.00,,,0.00,WSDL version 342,2013-10-19 10:06:00,
2013-10-19 06:11:00,41.0,33.7,29.44,WNW,293,0.0,0.0,75,0.00,,,0.00,WSDL version 342,2013-10-19 10:11:00,
2013-10-19 06:16:00,41.2,33.9,29.44,WNW,293,0.0,0.0,75,0.00,,,0.00,WSDL version 342,2013-10-19 10:16:00,
2013-10-19 06:21:00,41.2,33.9,29.44,WNW,293,0.0,0.0,75,0.00,,,0.00,WSDL version 342,2013-10-19 10:21:00,
2013-10-19 06:26:00,41.2,34.0,29.44,WNW,293,0.0,0.0,76,0.00,,,0.00,WSDL version 342,2013-10-19 10:26:00,
2013-10-19 06:31:00,41.2,34.2,29.44,WNW,293,0.0,0.0,76,0.00,,,0.00,WSDL version 342,2013-10-19 10:31:00,
2013-10-19 06:36:00,41.4,34.4,29.44,WNW,293,0.0,0.0,76,0.00,,,0.00,WSDL version 342,2013-10-19 10:36:00,
2013-10-19 06:41:00,41.6,34.6,29.44,WNW,293,0.0,0.0,76,0.00,,,0.00,WSDL version 342,2013-10-19 10:41:00,
2013-10-19 06:46:00,42.0,35.0,29.44,WNW,293,0.0,0.0,76,0.00,,,0.00,WSDL version 342,2013-10-19 10:46:00,
2013-10-19 06:51:00,42.4,35.4,29.44,WNW,293,0.0,0.0,76,0.00,,,0.00,WSDL version 342,2013-10-19 10:51:00,
2013-10-19 06:56:00,42.6,35.4,29.44,WNW,293,0.0,0.0,75,0.00,,,0.00,WSDL version 342,2013-10-19 10:56:00,
2013-10-19 07:01:00,42.8,35.1,29.44,WNW,293,0.0,0.0,74,0.00,,,0.00,WSDL version 342,2013-10-19 11:01:00,
2013-10-19 07:06:00,42.8,34.9,29.44,WNW,293,0.0,0.0,73,0.00,,,0.00,WSDL version 342,2013-10-19 11:06:00,
2013-10-19 07:11:00,42.8,34.7,29.44,WNW,293,0.0,0.0,72,0.00,,,0.00,WSDL version 342,2013-10-19 11:11:00,
2013-10-19 07:16:00,42.8,34.4,29.44,WNW,293,0.0,0.0,72,0.00,,,0.00,WSDL version 342,2013-10-19 11:16:00,
2013-10-19 07:21:00,42.7,34.3,29.44,WNW,293,0.0,0.0,72,0.00,,,0.00,WSDL version 342,2013-10-19 11:21:00,
2013-10-19 07:26:00,42.3,33.7,29.44,WNW,293,0.0,0.0,71,0.00,,,0.00,WSDL version 342,2013-10-19 11:26:00,
2013-10-19 07:31:00,41.9,33.2,29.44,WNW,293,0.0,0.0,71,0.00,,,0.00,WSDL version 342,2013-10-19 11:31:00,
2013-10-19 07:36:00,41.6,32.9,29.44,WNW,293,0.0,0.0,71,0.00,,,0.00,WSDL version 342,2013-10-19 11:36:00,
2013-10-19 07:41:00,41.3,32.6,29.44,WNW,293,0.0,0.0,71,0.00,,,0.00,WSDL version 342,2013-10-19 11:41:00,
2013-10-19 07:47:00,41.0,32.4,29.44,WNW,293,0.0,0.0,71,0.00,,,0.00,WSDL version 342,2013-10-19 11:47:00,
2013-10-19 07:52:00,40.7,32.4,29.44,WNW,293,0.0,0.0,72,0.00,,,0.00,WSDL version 342,2013-10-19 11:52:00,
2013-10-19 07:57:00,40.6,32.4,29.44,WNW,293,0.0,0.0,73,0.00,,,0.00,WSDL version 342,2013-10-19 11:57:00,
2013-10-19 08:03:00,40.6,32.9,29.44,WNW,293,0.0,0.0,74,0.00,,,0.00,WSDL version 342,2013-10-19 12:03:00,
2013-10-19 08:08:00,40.7,33.4,29.44,WNW,293,0.0,0.0,75,0.00,,,0.00,WSDL version 342,2013-10-19 12:08:00,
2013-10-19 08:13:00,40.9,33.6,29.44,WNW,293,0.0,0.0,75,-99.99,,,-99.99,WSDL version 342,2013-10-19 12:13:00,
2013-10-19 08:18:00,41.0,33.7,29.44,WNW,293,0.0,0.0,75,0.00,,,0.00,WSDL version 342,2013-10-19 12:18:00,
2013-10-19 08:23:00,41.1,33.8,29.44,WNW,293,0.0,0.0,75,0.00,,,0.00,WSDL version 342,2013-10-19 12:23:00,
2013-10-19 08:28:00,41.2,33.9,29.44,WNW,293,0.0,0.0,75,0.00,,,0.00,WSDL version 342,2013-10-19 12:28:00,
2013-10-19 08:33:00,41.3,34.0,29.44,WNW,293,0.0,0.0,75,0.00,,,0.00,WSDL version 342,2013-10-19 12:33:00,
2013-10-19 08:38:00,41.6,34.3,29.44,WNW,293,0.0,0.0,75,0.00,,,0.00,WSDL version 342,2013-10-19 12:38:00,
2013-10-19 08:43:00,41.9,34.8,29.44,WNW,293,0.0,0.0,76,0.00,,,0.00,WSDL version 342,2013-10-19 12:43:00,
2013-10-19 08:48:00,42.2,35.2,29.44,WNW,293,0.0,0.0,76,0.00,,,0.00,WSDL version 342,2013-10-19 12:48:00,
2013-10-19 08:53:00,42.5,35.6,29.44,WNW,293,0.0,0.0,77,0.00,,,0.00,WSDL version 342,2013-10-19 12:53:00,
2013-10-19 08:58:00,43.1,36.2,29.44,WNW,293,0.0,0.0,77,0.00,,,0.00,WSDL version 342,2013-10-19 12:58:00,
2013-10-19 09:03:00,43.9,37.2,29.44,NW,326,0.0,0.0,77,0.00,,,0.00,WSDL version 342,2013-10-19 13:03:00,
2013-10-19 09:08:00,45.1,37.9,29.44,East,90,0.0,0.0,76,0.00,,,0.00,WSDL version 342,2013-10-19 13:08:00,
2013-10-19 09:13:00,46.0,38.9,29.44,East,90,0.0,0.0,76,0.00,,,0.00,WSDL version 342,2013-10-19 13:13:00,
2013-10-19 09:18:00,46.6,39.1,29.44,East,90,0.0,0.0,75,-99.99,,,-99.99,WSDL version 342,2013-10-19 13:18:00,
2013-10-19 09:23:00,47.3,39.7,29.44,East,90,0.0,0.0,74,0.00,,,0.00,WSDL version 342,2013-10-19 13:23:00,
2013-10-19 09:29:00,47.8,39.8,29.44,East,90,0.0,0.0,73,0.00,,,0.00,WSDL version 342,2013-10-19 13:29:00,
2013-10-19 09:34:00,48.3,39.4,29.41,East,90,0.0,0.0,70,0.00,,,0.00,WSDL version 342,2013-10-19 13:34:00,
2013-10-19 09:39:00,48.6,38.2,29.41,East,90,0.0,0.0,66,0.00,,,0.00,WSDL version 342,2013-10-19 13:39:00,
2013-10-19 09:44:00,48.8,37.9,29.41,East,90,0.0,0.0,65,0.00,,,0.00,WSDL version 342,2013-10-19 13:44:00,
2013-10-19 09:49:00,49.2,37.4,29.44,East,90,0.0,0.0,62,0.00,,,0.00,WSDL version 342,2013-10-19 13:49:00,
2013-10-19 09:54:00,49.4,35.0,29.44,East,90,0.0,0.0,57,0.00,,,0.00,WSDL version 342,2013-10-19 13:54:00,
2013-10-19 10:00:00,49.6,34.3,29.44,East,90,0.0,0.0,55,0.00,,,0.00,WSDL version 342,2013-10-19 14:00:00,
2013-10-19 10:05:00,49.9,34.6,29.44,East,90,0.0,0.0,55,0.00,,,0.00,WSDL version 342,2013-10-19 14:05:00,
2013-10-19 10:10:00,50.2,34.1,29.44,ESE,109,0.0,0.0,54,0.00,,,0.00,WSDL version 342,2013-10-19 14:10:00,
2013-10-19 10:15:00,50.8,33.8,29.44,ESE,113,0.0,0.0,52,0.00,,,0.00,WSDL version 342,2013-10-19 14:15:00,
2013-10-19 10:21:00,51.4,33.1,29.41,ESE,113,0.0,0.0,48,0.00,,,0.00,WSDL version 342,2013-10-19 14:21:00,
2013-10-19 10:26:00,51.9,33.0,29.41,ESE,113,0.0,0.0,48,0.00,,,0.00,WSDL version 342,2013-10-19 14:26:00,
2013-10-19 10:31:00,52.3,32.3,29.41,ESE,113,0.0,0.0,45,0.00,,,0.00,WSDL version 342,2013-10-19 14:31:00,
2013-10-19 10:36:00,52.9,32.6,29.44,ENE,77,0.0,0.0,46,0.00,,,0.00,WSDL version 342,2013-10-19 14:36:00,
2013-10-19 10:41:00,53.7,31.9,29.44,ENE,68,0.0,0.0,44,0.00,,,0.00,WSDL version 342,2013-10-19 14:41:00,
2013-10-19 10:47:00,54.3,31.7,29.44,East,90,0.0,0.0,41,0.00,,,0.00,WSDL version 342,2013-10-19 14:47:00,
2013-10-19 10:52:00,54.7,30.5,29.44,South,188,0.0,0.0,38,0.00,,,0.00,WSDL version 342,2013-10-19 14:52:00,
2013-10-19 10:57:00,55.2,29.0,29.44,ESE,113,0.8,2.7,36,0.00,,,0.00,WSDL version 342,2013-10-19 14:57:00,
2013-10-19 11:02:00,55.9,28.6,29.44,SSW,196,1.9,2.9,34,0.00,,,0.00,WSDL version 342,2013-10-19 15:02:00,
2013-10-19 11:07:00,56.1,28.5,29.44,South,191,1.6,2.9,34,0.00,,,0.00,WSDL version 342,2013-10-19 15:07:00,
2013-10-19 11:12:00,56.5,29.2,29.44,SE,133,0.5,2.7,35,0.00,,,0.00,WSDL version 342,2013-10-19 15:12:00,
2013-10-19 11:17:00,57.1,29.5,29.44,East,101,0.4,2.2,34,-99.99,,,-99.99,WSDL version 342,2013-10-19 15:17:00,
2013-10-19 11:22:00,57.6,30.0,29.44,SE,141,0.0,1.3,35,0.00,,,0.00,WSDL version 342,2013-10-19 15:22:00,
2013-10-19 11:27:00,58.4,30.1,29.44,East,96,1.2,2.2,33,0.00,,,0.00,WSDL version 342,2013-10-19 15:27:00,
2013-10-19 11:32:00,58.6,26.9,29.41,ESE,106,1.9,3.1,27,0.00,,,0.00,WSDL version 342,2013-10-19 15:32:00,
2013-10-19 11:37:00,58.5,24.3,29.41,SSW,199,2.0,4.3,27,0.00,,,0.00,WSDL version 342,2013-10-19 15:37:00,
2013-10-19 11:42:00,58.6,25.6,29.41,ESE,109,1.3,4.3,29,0.00,,,0.00,WSDL version 342,2013-10-19 15:42:00,
2013-10-19 11:47:00,58.8,26.8,29.41,SE,132,0.4,3.1,30,0.00,,,0.00,WSDL version 342,2013-10-19 15:47:00,
2013-10-19 11:52:00,59.0,26.8,29.41,SE,138,0.0,1.6,29,0.00,,,0.00,WSDL version 342,2013-10-19 15:52:00,
2013-10-19 11:57:00,59.3,27.3,29.41,ENE,70,0.7,2.5,30,0.00,,,0.00,WSDL version 342,2013-10-19 15:57:00,
2013-10-19 12:02:00,59.4,25.9,29.38,ESE,119,0.7,3.8,26,0.00,,,0.00,WSDL version 342,2013-10-19 16:02:00,
2013-10-19 12:07:00,59.2,24.7,29.38,SSE,158,0.9,3.8,27,0.00,,,0.00,WSDL version 342,2013-10-19 16:07:00,
2013-10-19 12:12:00,59.6,25.6,29.38,East,96,0.5,2.5,27,0.00,,,0.00,WSDL version 342,2013-10-19 16:12:00,
2013-10-19 12:17:00,60.1,25.6,29.38,NE,55,0.3,2.2,27,0.00,,,0.00,WSDL version 342,2013-10-19 16:17:00,
2013-10-19 12:22:00,60.6,26.3,29.38,ENE,68,0.0,2.2,27,0.00,,,0.00,WSDL version 342,2013-10-19 16:22:00,
2013-10-19 12:27:00,60.8,26.2,29.38,SW,221,0.2,3.4,27,-99.99,,,-99.99,WSDL version 342,2013-10-19 16:27:00,
2013-10-19 12:33:00,60.9,26.7,29.38,ENE,58,0.3,3.4,27,0.00,,,0.00,WSDL version 342,2013-10-19 16:33:00,
2013-10-19 12:38:00,60.9,25.5,29.38,NE,48,1.5,2.9,26,0.00,,,0.00,WSDL version 342,2013-10-19 16:38:00,
2013-10-19 12:43:00,61.0,24.9,29.38,SW,225,1.8,3.1,25,0.00,,,0.00,WSDL version 342,2013-10-19 16:43:00,
2013-10-19 12:48:00,61.3,25.2,29.38,ESE,113,1.0,3.1,25,0.00,,,0.00,WSDL version 342,2013-10-19 16:48:00,
2013-10-19 12:53:00,61.5,26.1,29.38,SE,124,1.5,3.1,26,-99.99,,,-99.99,WSDL version 342,2013-10-19 16:53:00,
2013-10-19 12:58:00,61.7,26.1,29.38,East,79,2.2,4.0,26,0.00,,,0.00,WSDL version 342,2013-10-19 16:58:00,
2013-10-19 13:03:00,61.9,26.1,29.35,East,95,1.1,4.0,26,0.00,,,0.00,WSDL version 342,2013-10-19 17:03:00,
2013-10-19 13:08:00,62.2,26.4,29.35,SSE,149,2.0,2.9,25,0.00,,,0.00,WSDL version 342,2013-10-19 17:08:00,
2013-10-19 13:13:00,62.4,26.4,29.35,SSE,158,2.2,3.4,25,0.00,,,0.00,WSDL version 342,2013-10-19 17:13:00,
2013-10-19 13:18:00,62.7,25.9,29.38,ESE,109,1.8,3.4,24,0.00,,,0.00,WSDL version 342,2013-10-19 17:18:00,
2013-10-19 13:23:00,62.6,25.3,29.38,ENE,71,1.3,2.7,24,0.00,,,0.00,WSDL version 342,2013-10-19 17:23:00,
2013-10-19 13:28:00,62.4,25.7,29.38,SSE,154,2.2,4.0,24,0.00,,,0.00,WSDL version 342,2013-10-19 17:28:00,
2013-10-19 13:33:00,62.5,25.3,29.38,ESE,120,2.3,4.0,24,0.00,,,0.00,WSDL version 342,2013-10-19 17:33:00,
2013-10-19 13:38:00,62.7,25.4,29.38,East,86,1.5,4.3,24,0.00,,,0.00,WSDL version 342,2013-10-19 17:38:00,
2013-10-19 13:43:00,63.1,25.7,29.38,East,87,0.5,4.3,24,0.00,,,0.00,WSDL version 342,2013-10-19 17:43:00,
2013-10-19 13:48:00,63.3,25.9,29.35,ESE,117,1.1,2.0,24,0.00,,,0.00,WSDL version 342,2013-10-19 17:48:00,
2013-10-19 13:53:00,62.6,20.6,29.35,ESE,113,3.3,5.6,19,0.00,,,0.00,WSDL version 342,2013-10-19 17:53:00,
2013-10-19 13:58:00,61.5,18.9,29.35,SE,146,3.8,6.5,19,0.00,,,0.00,WSDL version 342,2013-10-19 17:58:00,
2013-10-19 14:03:00,61.4,20.5,29.32,East,86,1.8,6.5,21,0.00,,,0.00,WSDL version 342,2013-10-19 18:03:00,
2013-10-19 14:08:00,61.9,21.6,29.32,East,101,2.3,2.9,21,0.00,,,0.00,WSDL version 342,2013-10-19 18:08:00,
2013-10-19 14:13:00,62.0,19.9,29.32,ENE,74,2.5,4.0,19,0.00,,,0.00,WSDL version 342,2013-10-19 18:13:00,
2013-10-19 14:18:00,62.4,21.2,-100.00,ESE,113,1.2,4.0,21,0.00,,,0.00,WSDL version 342,2013-10-19 18:18:00,
2013-10-19 14:23:00,62.5,19.1,29.32,ESE,104,1.6,3.6,18,0.00,,,0.00,WSDL version 342,2013-10-19 18:23:00,
2013-10-19 14:29:00,63.0,21.3,29.32,South,180,0.9,3.8,21,0.00,,,0.00,WSDL version 342,2013-10-19 18:29:00,
2013-10-19 14:34:00,63.5,20.1,29.32,SE,146,3.0,6.0,18,0.00,,,0.00,WSDL version 342,2013-10-19 18:34:00,
2013-10-19 14:39:00,63.6,19.4,29.32,SSE,150,3.3,6.0,18,0.00,,,0.00,WSDL version 342,2013-10-19 18:39:00,
2013-10-19 14:44:00,63.3,19.1,29.32,SE,131,2.6,5.8,18,0.00,,,0.00,WSDL version 342,2013-10-19 18:44:00,
2013-10-19 14:49:00,63.4,19.1,29.32,SE,128,1.2,5.8,18,0.00,,,0.00,WSDL version 342,2013-10-19 18:49:00,
2013-10-19 14:54:00,63.1,19.0,29.32,ENE,68,1.0,4.9,18,0.00,,,0.00,WSDL version 342,2013-10-19 18:54:00,
2013-10-19 14:59:00,63.6,19.4,29.32,SSE,148,2.0,4.0,18,0.00,,,0.00,WSDL version 342,2013-10-19 18:59:00,
2013-10-19 15:05:00,64.2,19.8,29.32,South,191,2.5,4.0,18,0.00,,,0.00,WSDL version 342,2013-10-19 19:05:00,
2013-10-19 15:10:00,63.7,19.4,29.32,East,86,0.4,3.8,18,0.00,,,0.00,WSDL version 342,2013-10-19 19:10:00,
2013-10-19 15:15:00,63.3,19.1,29.32,NE,41,1.8,3.1,18,0.00,,,0.00,WSDL version 342,2013-10-19 19:15:00,
2013-10-19 15:21:00,62.2,19.5,29.29,ENE,68,1.1,3.1,19,0.00,,,0.00,WSDL version 342,2013-10-19 19:21:00,
2013-10-19 15:26:00,61.9,20.4,29.29,SE,135,0.0,2.0,21,0.00,,,0.00,WSDL version 342,2013-10-19 19:26:00,
2013-10-19 15:31:00,61.4,21.2,29.29,SE,128,1.0,2.2,21,0.00,,,0.00,WSDL version 342,2013-10-19 19:31:00,
2013-10-19 15:36:00,61.3,21.1,29.29,North,8,0.1,2.2,21,0.00,,,0.00,WSDL version 342,2013-10-19 19:36:00,
2013-10-19 15:41:00,61.3,21.0,29.29,SSE,158,0.0,1.6,21,0.00,,,0.00,WSDL version 342,2013-10-19 19:41:00,
2013-10-19 15:46:00,61.1,24.0,29.29,SE,143,0.0,1.1,24,0.00,,,0.00,WSDL version 342,2013-10-19 19:46:00,
2013-10-19 15:51:00,60.9,23.9,29.29,ENE,68,1.7,2.9,24,0.00,,,0.00,WSDL version 342,2013-10-19 19:51:00,
2013-10-19 15:56:00,60.6,23.6,29.29,ESE,113,0.7,2.9,24,0.00,,,0.00,WSDL version 342,2013-10-19 19:56:00,
2013-10-19 16:01:00,60.8,23.8,29.26,ESE,113,0.0,1.3,24,0.00,,,0.00,WSDL version 342,2013-10-19 20:01:00,
2013-10-19 16:06:00,60.6,23.6,29.26,East,101,0.6,1.1,24,0.00,,,0.00,WSDL version 342,2013-10-19 20:06:00,
2013-10-19 16:11:00,60.5,23.6,29.26,East,99,0.7,2.7,24,0.00,,,0.00,WSDL version 342,2013-10-19 20:11:00,
2013-10-19 16:16:00,60.4,23.8,29.26,ESE,113,1.2,2.7,25,0.00,,,0.00,WSDL version 342,2013-10-19 20:16:00,
2013-10-19 16:21:00,60.6,24.6,29.26,SSE,158,1.4,2.0,25,0.00,,,0.00,WSDL version 342,2013-10-19 20:21:00,
2013-10-19 16:26:00,60.6,24.6,29.26,South,174,0.7,2.0,25,0.00,,,0.00,WSDL version 342,2013-10-19 20:26:00,
2013-10-19 16:31:00,60.6,24.6,29.26,East,98,1.1,2.0,25,0.00,,,0.00,WSDL version 342,2013-10-19 20:31:00,
2013-10-19 16:36:00,60.4,24.5,29.26,SE,131,0.4,2.2,25,0.00,,,0.00,WSDL version 342,2013-10-19 20:36:00,
2013-10-19 16:41:00,60.4,24.5,29.26,ESE,113,1.1,2.7,25,0.00,,,0.00,WSDL version 342,2013-10-19 20:41:00,
2013-10-19 16:50:00,60.3,24.4,29.26,SE,128,1.2,2.5,25,0.00,,,0.00,WSDL version 342,2013-10-19 20:50:00,
2013-10-19 16:55:00,60.1,24.2,29.26,SSE,158,0.9,0.0,25,0.00,,,0.00,WSDL version 342,2013-10-19 20:55:00,
2013-10-19 17:00:00,60.0,24.8,29.26,SSE,158,0.9,0.0,26,0.00,,,0.00,WSDL version 342,2013-10-19 21:00:00,
2013-10-19 17:05:00,59.9,25.0,29.26,SSE,158,0.9,0.0,26,0.00,,,0.00,WSDL version 342,2013-10-19 21:05:00,
2013-10-19 17:10:00,59.7,24.8,29.26,North,360,0.9,0.0,26,0.00,,,0.00,WSDL version 342,2013-10-19 21:10:00,
2013-10-19 17:15:00,59.6,24.7,29.26,SSE,152,0.0,0.0,26,0.00,,,0.00,WSDL version 342,2013-10-19 21:15:00,
2013-10-19 17:20:00,59.5,24.6,29.29,SE,135,0.0,0.0,26,0.00,,,0.00,WSDL version 342,2013-10-19 21:20:00,
2013-10-19 17:25:00,59.4,24.5,29.29,ENE,68,0.9,1.1,26,0.00,,,0.00,WSDL version 342,2013-10-19 21:25:00,
2013-10-19 17:30:00,59.2,25.2,29.29,NNE,15,0.6,1.3,27,0.00,,,0.00,WSDL version 342,2013-10-19 21:30:00,
2013-10-19 17:35:00,58.9,25.0,29.26,SSE,158,0.0,1.3,27,0.00,,,0.00,WSDL version 342,2013-10-19 21:35:00,
2013-10-19 17:40:00,58.8,25.8,29.26,SSE,158,0.0,1.3,28,0.00,,,0.00,WSDL version 342,2013-10-19 21:40:00,
2013-10-19 17:45:00,58.6,25.6,29.26,SSE,158,0.0,0.0,28,0.00,,,0.00,WSDL version 342,2013-10-19 21:45:00,
2013-10-19 17:50:00,58.4,25.4,29.26,North,0,0.0,0.0,28,-99.99,,,-99.99,WSDL version 342,2013-10-19 21:50:00,
2013-10-19 17:55:00,58.2,25.9,29.26,North,-999,-999.0,-999.0,29,0.00,,,0.00,WSDL version 342,2013-10-19 21:55:00,
2013-10-19 18:00:00,58.1,26.0,29.26,North,-999,-999.0,-999.0,29,0.00,,,0.00,WSDL version 342,2013-10-19 22:00:00,
2013-10-19 18:05:00,57.8,25.8,29.26,ENE,68,0.0,1.6,29,0.00,,,0.00,WSDL version 342,2013-10-19 22:05:00,
2013-10-19 18:11:00,57.6,26.4,29.26,ENE,68,0.0,1.6,30,0.00,,,0.00,WSDL version 342,2013-10-19 22:11:00,
2013-10-19 18:16:00,57.5,26.9,29.26,ENE,68,0.0,0.0,31,0.00,,,0.00,WSDL version 342,2013-10-19 22:16:00,
2013-10-19 18:21:00,57.4,27.0,29.26,SSE,158,0.0,0.0,31,0.00,,,0.00,WSDL version 342,2013-10-19 22:21:00,
2013-10-19 18:26:00,57.2,27.1,29.26,ENE,68,0.0,0.9,32,0.00,,,0.00,WSDL version 342,2013-10-19 22:26:00,
2013-10-19 18:31:00,57.1,28.1,29.23,ENE,68,0.0,0.9,34,0.00,,,0.00,WSDL version 342,2013-10-19 22:31:00,
2013-10-19 18:36:00,56.9,28.9,29.23,East,90,0.9,0.9,34,0.00,,,0.00,WSDL version 342,2013-10-19 22:36:00,
2013-10-19 18:41:00,56.8,29.5,29.23,ESE,113,1.1,1.1,35,-99.99,,,-99.99,WSDL version 342,2013-10-19 22:41:00,
2013-10-19 18:46:00,56.8,29.5,29.26,NE,45,0.8,1.6,35,0.00,,,0.00,WSDL version 342,2013-10-19 22:46:00,
2013-10-19 18:51:00,56.7,29.3,29.26,SE,135,0.9,1.6,35,0.00,,,0.00,WSDL version 342,2013-10-19 22:51:00,
2013-10-19 18:56:00,56.5,29.2,29.26,SE,135,0.0,1.6,35,0.00,,,0.00,WSDL version 342,2013-10-19 22:56:00,
2013-10-19 19:01:00,56.3,29.0,29.26,SE,135,0.0,0.0,35,0.00,,,0.00,WSDL version 342,2013-10-19 23:01:00,
2013-10-19 19:06:00,56.3,29.0,29.26,SE,135,0.0,0.0,35,0.00,,,0.00,WSDL version 342,2013-10-19 23:06:00,
2013-10-19 19:11:00,56.3,29.5,29.26,North,-999,-999.0,-999.0,36,0.00,,,0.00,WSDL version 342,2013-10-19 23:11:00,
2013-10-19 19:16:00,56.2,29.7,29.23,North,-999,-999.0,-999.0,36,0.00,,,0.00,WSDL version 342,2013-10-19 23:16:00,
2013-10-19 19:21:00,56.1,29.5,29.23,North,-999,-999.0,-999.0,36,0.00,,,0.00,WSDL version 342,2013-10-19 23:21:00,
2013-10-19 19:26:00,55.9,29.4,29.23,North,-999,-999.0,-999.0,36,0.00,,,0.00,WSDL version 342,2013-10-19 23:26:00,
2013-10-19 19:33:00,55.8,29.3,29.23,NE,45,1.1,1.1,36,0.00,,,0.00,WSDL version 342,2013-10-19 23:33:00,
2013-10-19 19:38:00,55.8,29.5,29.23,NE,45,1.1,1.1,36,0.00,,,0.00,WSDL version 342,2013-10-19 23:38:00,
2013-10-19 19:43:00,55.6,29.4,29.23,NE,45,1.1,1.1,36,0.00,,,0.00,WSDL version 342,2013-10-19 23:43:00,
2013-10-19 19:48:00,55.6,29.7,29.21,ENE,68,0.0,1.1,37,0.00,,,0.00,WSDL version 342,2013-10-19 23:48:00,
2013-10-19 19:53:00,55.4,29.6,29.21,ENE,68,0.0,0.0,37,0.00,,,0.00,WSDL version 342,2013-10-19 23:53:00,
2013-10-19 19:58:00,55.3,29.7,29.21,NE,45,0.0,0.0,38,0.00,,,0.00,WSDL version 342,2013-10-19 23:58:00,
2013-10-19 20:03:00,55.1,30.0,29.21,NE,45,0.0,0.0,38,0.00,,,0.00,WSDL version 342,2013-10-20 00:03:00,
2013-10-19 20:08:00,54.9,29.8,29.21,NE,45,0.0,0.0,38,0.00,,,0.00,WSDL version 342,2013-10-20 00:08:00,
2013-10-19 20:14:00,54.8,30.1,29.21,NE,45,0.0,0.0,39,0.00,,,0.00,WSDL version 342,2013-10-20 00:14:00,
2013-10-19 20:19:00,54.9,31.0,29.23,NE,45,0.0,0.0,40,0.00,,,0.00,WSDL version 342,2013-10-20 00:19:00,
2013-10-19 20:24:00,55.0,31.1,29.23,NE,45,0.0,0.0,40,0.00,,,0.00,WSDL version 342,2013-10-20 00:24:00,
2013-10-19 20:29:00,55.1,31.4,29.23,NE,45,0.0,0.0,41,0.00,,,0.00,WSDL version 342,2013-10-20 00:29:00,
2013-10-19 20:34:00,55.3,31.7,29.23,NE,45,0.0,0.0,40,0.00,,,0.00,WSDL version 342,2013-10-20 00:34:00,
2013-10-19 20:39:00,55.4,32.1,29.23,NE,45,0.0,0.0,41,0.00,,,0.00,WSDL version 342,2013-10-20 00:39:00,
2013-10-19 20:44:00,55.5,32.5,29.23,NE,45,0.0,0.0,42,0.00,,,0.00,WSDL version 342,2013-10-20 00:44:00,
2013-10-19 20:49:00,55.5,32.8,29.23,East,98,0.3,1.3,42,0.00,,,0.00,WSDL version 342,2013-10-20 00:49:00,
2013-10-19 20:54:00,55.6,33.0,29.23,SE,135,0.0,1.3,43,0.00,,,0.00,WSDL version 342,2013-10-20 00:54:00,
2013-10-19 20:59:00,55.6,33.3,29.23,SE,135,0.0,0.0,43,0.00,,,0.00,WSDL version 342,2013-10-20 00:59:00,
2013-10-19 21:04:00,55.6,33.5,29.21,SE,135,1.3,2.7,43,0.00,,,0.00,WSDL version 342,2013-10-20 01:04:00,
2013-10-19 21:09:00,55.6,33.9,29.21,NE,45,1.3,2.7,44,0.00,,,0.00,WSDL version 342,2013-10-20 01:09:00,
2013-10-19 21:14:00,55.6,34.0,29.21,NE,45,1.3,2.0,44,0.00,,,0.00,WSDL version 342,2013-10-20 01:14:00,
2013-10-19 21:19:00,55.6,34.6,29.21,West,276,0.7,2.5,46,0.00,,,0.00,WSDL version 342,2013-10-20 01:19:00,
2013-10-19 21:24:00,55.7,35.1,29.21,ENE,68,1.6,2.5,46,0.00,,,0.00,WSDL version 342,2013-10-20 01:24:00,
2013-10-19 21:29:00,55.8,35.9,29.21,ESE,113,1.8,2.5,47,0.00,,,0.00,WSDL version 342,2013-10-20 01:29:00,
2013-10-19 21:34:00,55.8,35.9,29.23,SE,146,1.1,3.6,47,0.00,,,0.00,WSDL version 342,2013-10-20 01:34:00,
2013-10-19 21:39:00,55.8,36.3,29.23,East,90,0.4,3.6,48,0.00,,,0.00,WSDL version 342,2013-10-20 01:39:00,
2013-10-19 21:45:00,55.8,36.6,29.23,NE,45,0.0,2.7,48,0.00,,,0.00,WSDL version 342,2013-10-20 01:45:00,
2013-10-19 21:50:00,55.5,36.7,29.21,NNE,23,1.1,2.7,49,0.00,,,0.00,WSDL version 342,2013-10-20 01:50:00,
2013-10-19 21:55:00,55.3,37.0,29.21,ENE,68,0.9,2.7,52,0.00,,,0.00,WSDL version 342,2013-10-20 01:55:00,
2013-10-19 22:00:00,55.0,38.6,29.21,SSE,167,2.5,4.0,56,0.00,,,0.00,WSDL version 342,2013-10-20 02:00:00,
2013-10-19 22:05:00,54.7,40.0,29.23,South,180,1.5,4.0,60,0.00,,,0.00,WSDL version 342,2013-10-20 02:05:00,
2013-10-19 22:10:00,54.6,41.7,29.23,SSW,203,2.2,4.3,64,-99.99,,,-99.99,WSDL version 342,2013-10-20 02:10:00,
2013-10-19 22:15:00,54.3,44.1,29.23,SSW,203,2.0,4.3,69,0.00,,,0.00,WSDL version 342,2013-10-20 02:15:00,
2013-10-19 22:20:00,54.1,44.2,29.23,SSW,203,1.3,4.3,69,0.03,,,0.03,WSDL version 342,2013-10-20 02:20:00,
2013-10-19 22:25:00,54.0,43.7,29.23,SSW,203,0.0,3.1,68,0.03,,,0.03,WSDL version 342,2013-10-20 02:25:00,
2013-10-19 22:30:00,53.8,43.9,29.23,SSW,195,0.4,2.7,69,0.03,,,0.03,WSDL version 342,2013-10-20 02:30:00,
2013-10-19 22:35:00,53.7,44.2,29.23,SSW,203,0.0,2.7,71,0.03,,,0.03,WSDL version 342,2013-10-20 02:35:00,
2013-10-19 22:40:00,53.6,43.8,29.23,SSW,203,0.0,0.0,69,0.03,,,0.03,WSDL version 342,2013-10-20 02:40:00,
2013-10-19 22:45:00,53.6,43.8,29.23,SSW,203,0.0,0.0,69,0.03,,,0.03,WSDL version 342,2013-10-20 02:45:00,
2013-10-19 22:50:00,53.6,44.1,29.23,SSE,158,0.0,0.0,70,0.03,,,0.03,WSDL version 342,2013-10-20 02:50:00,
2013-10-19 22:55:00,53.5,44.1,29.23,SSE,158,0.0,0.0,71,0.03,,,0.03,WSDL version 342,2013-10-20 02:55:00,
2013-10-19 23:00:00,53.4,44.3,29.23,WSW,248,0.0,0.0,71,0.03,,,0.03,WSDL version 342,2013-10-20 03:00:00,
2013-10-19 23:05:00,53.4,44.3,29.23,SSE,158,1.1,1.1,72,0.03,,,0.03,WSDL version 342,2013-10-20 03:05:00,
2013-10-19 23:10:00,53.2,44.6,29.23,South,169,0.0,1.1,73,0.03,,,0.03,WSDL version 342,2013-10-20 03:10:00,
2013-10-19 23:15:00,53.2,44.7,29.23,South,180,0.0,0.0,73,0.00,,,0.03,WSDL version 342,2013-10-20 03:15:00,
2013-10-19 23:20:00,53.1,45.0,29.23,SW,225,0.6,1.6,74,0.00,,,0.03,WSDL version 342,2013-10-20 03:20:00,
2013-10-19 23:25:00,53.1,46.0,29.23,SSE,158,2.9,4.9,78,0.00,,,0.03,WSDL version 342,2013-10-20 03:25:00,
2013-10-19 23:31:00,53.2,47.5,29.23,SSE,158,2.2,6.0,81,0.00,,,0.03,WSDL version 342,2013-10-20 03:31:00,
2013-10-19 23:36:00,53.1,47.2,29.23,SSE,158,0.0,6.0,80,0.00,,,0.03,WSDL version 342,2013-10-20 03:36:00,
2013-10-19 23:41:00,53.1,47.1,29.23,South,173,1.0,3.6,80,0.00,,,0.03,WSDL version 342,2013-10-20 03:41:00,
2013-10-19 23:46:00,52.9,46.6,29.23,SSE,158,0.0,3.6,79,0.00,,,0.03,WSDL version 342,2013-10-20 03:46:00,
2013-10-19 23:51:00,52.9,46.8,29.23,SSW,203,2.0,3.1,80,0.00,,,0.03,WSDL version 342,2013-10-20 03:51:00,
2013-10-19 23:56:00,52.9,47.1,29.23,SW,225,2.0,4.3,81,0.00,,,0.03,WSDL version 342,2013-10-20 03:56:00,